Regional Weather Roundup
Issued by NWS

Home | Current Version | Previous Version | Text Only | Print | Product List | Glossary Off
Versions: 1 2 3 4 5 6 7 8 9 10 11 12 13 14 15 16 17 18 19 20 21 22 23 24 25 26 27 28 29 30 31 32 33 34 35 36 37 38 39 40 41 42 43 44 45 46 47 48 49 50

000
ASUS43 KMKX 181000
RWRWI

WISCONSIN REGIONAL WEATHER ROUNDUP
NATIONAL WEATHER SERVICE MILWAUKEE/SULLIVAN WI
500 AM CDT FRI APR 18 2014

NOTE: "FAIR" INDICATES FEW OR NO CLOUDS BELOW 12,000 FEET WITH NO
SIGNIFICANT WEATHER AND/OR OBSTRUCTIONS TO VISIBILITY.

WIZ001-002-006>008-014>016-023>028-181100-
NORTHWEST WISCONSIN

CITY           SKY/WX    TMP DP  RH WIND       PRES   REMARKS
SUPERIOR ARPT  MOCLDY    20  19  96 CALM      30.35R
ASHLAND        MOCLDY    22  21  96 W3        30.35R
HAYWARD        FOG       15  11  83 CALM      30.33R VSB 1/4
SIREN          CLEAR     17  16  93 CALM      30.34R
RICE LAKE      CLEAR     20  19  93 CALM      30.34S FOG
LADYSMITH      FOG       20  19  95 CALM      30.33S VSB 1/2
EAU CLAIRE     NOT AVBL
MENOMONIE      SUNNY     26  25  96 CALM      30.35R FOG
NEW RICHMOND   MOCLDY    26  26 100 CALM      30.34R
OSCEOLA        PTCLDY    20  19  99 CALM      30.36S FOG
$$

WIZ003>005-009-010-017-018-181100-
NORTH CENTRAL WISCONSIN

CITY           SKY/WX    TMP DP  RH WIND       PRES   REMARKS
WOODRUFF       FOG       22  17  83 CALM      30.28R VSB 1/2
RHINELANDER    CLEAR     21  20  96 CALM      30.29R
EAGLE RIVER    FOG       22  22  99 CALM      30.27R VSB 1/4
LAND O LAKES     N/A     22  21  95 CALM      30.28R FOG
PHILLIPS       FOG       17  17  96 CALM      30.29R VSB 1/4
TOMAHAWK       CLEAR     23  22  94 CALM      30.29S
MEDFORD        CLEAR     25  24  94 CALM      30.29S
MERRILL        CLEAR     25  24  94 CALM      30.30R
$$

WIZ029-030-035-036-043>047-181100-
CENTRAL WISCONSIN

CITY           SKY/WX    TMP DP  RH WIND       PRES   REMARKS
WAUSAU         CLEAR     29  24  82 CALM      30.29R
MOSINEE        CLEAR     30  27  86 CALM      30.31R
MARSHFIELD     CLEAR     29  25  85 NW3       30.30R
STEVENS POINT  CLEAR     29  23  79 CALM      30.31S
WAUPACA        CLOUDY    36  25  64 NW6       30.31S WCI  31
WAUTOMA        NOT AVBL
WISC RAPIDS    CLEAR     29  24  82 CALM      30.32S
CAMP DOUGLAS   NOT AVBL
$$

WIZ011>013-019>022-031-037>040-048>050-181100-
NORTHEAST WISCONSIN

CITY           SKY/WX    TMP DP  RH WIND       PRES   REMARKS
ANTIGO         CLEAR     28  24  84 NW3       30.28R
STURGEON BAY   CLOUDY    34  27  75 N9        30.31R WCI  26
GREEN BAY      CLOUDY    36  29  75 NW5       30.31R WCI  32
MANITOWOC      NOT AVBL
APPLETON       CLOUDY    34  28  80 NW6       30.30R WCI  29
CLINTONVILLE   CLOUDY    34  27  75 NW7       30.31R WCI  28
OSHKOSH        CLOUDY    34  28  79 NW5       30.30S WCI  30
$$

WIZ032>034-041-042-053>061-181100-
SOUTHWEST WISCONSIN

CITY           SKY/WX    TMP DP  RH WIND       PRES   REMARKS
LA CROSSE      CLEAR     29  26  89 N5        30.34R WCI  24
SPARTA         CLEAR     24  23  96 CALM      30.34S
VIROQUA        FAIR      30  27  91 N3        30.31S
BOSCOBEL       CLEAR     27  25  92 CALM      30.34R FOG
PRAIRIE DU CHI CLEAR     29  26  91 CALM      30.33R
PLATTEVILLE    FAIR      30  28  92 N3        30.31S
$$

WIZ056-057-062-063-064-067-068-181100-
SOUTH CENTRAL WISCONSIN

CITY           SKY/WX    TMP DP  RH WIND       PRES   REMARKS
BARABOO/DELLS  CLEAR     28  26  95 CALM      30.31R FOG
LONE ROCK      NOT AVBL
WATERTOWN      CLEAR     29  28  93 CALM      30.30R
MADISON        CLEAR     27  26  96 CALM      30.32R FOG
MIDDLETON      FAIR      29  28  96 CALM      30.31R
MONROE         CLEAR    N/A N/A N/A N8        30.28S
JANESVILLE     CLEAR     36  32  87 N3        30.29S
$$

WIZ051-052-058>065-066-070>072-181100-
SOUTHEAST WISCONSIN

CITY           SKY/WX    TMP DP  RH WIND       PRES   REMARKS
MILWAUKEE      PTCLDY    38  31  76 N5        30.30R WCI  34
WAUKESHA       MOCLDY    34  32  93 NW3       30.30S
MILWAUKEE/TIMM PTCLDY    36  30  80 N5        30.30R WCI  32
RACINE         CLEAR     37  33  85 N7        30.30R WCI  32
BURLINGTON     CLEAR     34  32  93 N7        30.29R WCI  28
KENOSHA        CLEAR     37  33  85 N7        30.28R WCI  32
FOND DU LAC    PTCLDY    31  28  89 CALM      30.31R
SHEBOYGAN      CLOUDY    36  31  82 NW7       30.30R WCI  30
WEST BEND      CLOUDY    34  30  86 NW3       30.29R
JUNEAU         MOCLDY    32  29  90 CALM      30.31R
$$

LSZ147-162-181100-
LAKE SUPERIOR

STATION/POSITION TIME  TEMP    WIND        PRES    WAVE
                       AIR SEA DIR/SP/G            HT/PER
                 (UTC) (F)     (DEG/KT/KT) (MB)    (FT/S)
DEVILS ISLAND    0900   32     330/ 10/ 11 1028.0S
PORT WING        0900   25     170/  1/  2 1027.4R
SAXON HARBOR     0900           CALM  /  2 1026.8S
$$

LMZ867-665-643>646-181100-
LAKE MICHIGAN

STATION/POSITION TIME  TEMP    WIND        PRES    WAVE
                       AIR SEA DIR/SP/G            HT/PER
                 (UTC) (F)     (DEG/KT/KT) (MB)    (FT/S)
NORTHPORT PIER   0900   33     300/  5/  9 1025.7R
SISTER BAY       0923   33     350/  7/  7   N/A
KEWAUNEE LAKESHO 0900   37     350/  4/  8 1026.1R
SHEBOYGAN LAKESH 0900   39     320/  9/ 12 1026.2R
PORT WASHINGTON  0900   37     310/  5/  7 1026.1S
MILWAUKEE LAKESH 0900   40     330/  6/  9   N/A
KENOSHA   LAKESH 0900   42     360/ 12/ 13   N/A
$$

TC  - TEMPERATURE IN CELSIUS
VSB - VISIBILITY IN STATUTE MILES
WCI - WIND CHILL INDEX
HX  - HEAT INDEX




USA.gov is the U.S. government's official web portal to all federal, state and local government web resources and services.